TimeEDT,TemperatureF,Dew PointF,Humidity,Sea Level PressureIn,VisibilityMPH,Wind Direction,Wind SpeedMPH,Gust SpeedMPH,PrecipitationIn,Events,Conditions,WindDirDegrees,DateUTC
12:14 AM,21.9,12.9,68,29.97,10.0,NNE,9.2,-,N/A,,Overcast,30,2013-03-16 04:14:00
12:34 AM,21.7,13.1,69,29.97,10.0,NNE,9.2,-,N/A,,Overcast,30,2013-03-16 04:34:00
12:54 AM,21.6,13.5,71,29.97,10.0,NE,5.8,-,N/A,,Overcast,50,2013-03-16 04:54:00
1:15 AM,21.2,12.9,70,29.97,10.0,NE,8.1,-,N/A,,Overcast,50,2013-03-16 05:15:00
1:54 AM,21.2,13.8,73,29.96,10.0,NE,5.8,-,N/A,,Overcast,40,2013-03-16 05:54:00
2:15 AM,21.2,13.1,71,29.96,10.0,NE,6.9,-,N/A,,Overcast,50,2013-03-16 06:15:00
2:34 AM,21.2,13.1,71,29.96,10.0,ENE,6.9,-,N/A,,Overcast,60,2013-03-16 06:34:00
2:55 AM,21.0,13.3,72,29.96,10.0,ENE,5.8,-,N/A,,Overcast,70,2013-03-16 06:55:00
3:15 AM,20.8,13.8,74,29.95,5.0,ENE,5.8,-,N/A,Snow,Light Snow,70,2013-03-16 07:15:00
3:34 AM,20.3,15.3,81,29.95,4.0,ENE,6.9,-,N/A,Snow,Light Snow,60,2013-03-16 07:34:00
3:55 AM,19.9,16.0,85,29.95,3.0,ENE,3.5,-,N/A,Snow,Light Snow,70,2013-03-16 07:55:00
4:14 AM,19.8,16.7,88,29.93,3.0,East,6.9,-,N/A,Snow,Light Snow,80,2013-03-16 08:14:00
4:35 AM,19.4,16.7,89,29.93,4.0,ENE,4.6,-,N/A,Snow,Light Snow,70,2013-03-16 08:35:00
4:55 AM,19.4,16.9,90,29.92,2.5,ENE,5.8,-,N/A,Snow,Light Snow,70,2013-03-16 08:55:00
5:14 AM,19.4,16.9,90,29.92,3.0,ENE,4.6,-,N/A,Snow,Light Snow,60,2013-03-16 09:14:00
5:35 AM,19.4,17.4,92,29.92,5.0,ENE,4.6,-,N/A,Snow,Light Snow,60,2013-03-16 09:35:00
5:55 AM,19.4,17.2,91,29.92,3.0,NE,5.8,-,N/A,Snow,Light Snow,50,2013-03-16 09:55:00
6:14 AM,19.4,17.4,92,29.92,2.5,ENE,8.1,-,N/A,Snow,Light Snow,60,2013-03-16 10:14:00
6:35 AM,19.0,16.5,90,29.93,2.5,ENE,10.4,19.6,N/A,Snow,Light Snow,70,2013-03-16 10:35:00
6:54 AM,18.3,15.8,90,29.93,2.0,ENE,10.4,-,N/A,Snow,Light Snow,70,2013-03-16 10:54:00
7:14 AM,17.6,15.4,91,29.94,1.8,East,12.7,17.3,N/A,Snow,Light Snow,80,2013-03-16 11:14:00
7:34 AM,17.6,15.1,90,29.94,2.0,East,9.2,-,N/A,Snow,Light Snow,80,2013-03-16 11:34:00
7:54 AM,17.6,14.9,89,29.95,5.0,ENE,8.1,-,N/A,Snow,Light Snow,70,2013-03-16 11:54:00
8:15 AM,17.6,14.4,87,29.95,5.0,East,12.7,-,N/A,Snow,Light Snow,80,2013-03-16 12:15:00
8:34 AM,17.6,14.4,87,29.96,2.5,ENE,10.4,-,N/A,Snow,Light Snow,70,2013-03-16 12:34:00
8:54 AM,17.2,14.0,87,29.97,7.0,ENE,11.5,-,N/A,,Overcast,60,2013-03-16 12:54:00
9:15 AM,17.2,13.8,86,29.97,10.0,East,11.5,-,N/A,,Overcast,80,2013-03-16 13:15:00
9:34 AM,17.1,13.3,85,29.98,10.0,ENE,10.4,-,N/A,,Overcast,70,2013-03-16 13:34:00
9:55 AM,17.6,13.1,83,29.98,10.0,ENE,11.5,-,N/A,,Overcast,70,2013-03-16 13:55:00
10:14 AM,17.6,13.1,83,29.98,10.0,ENE,10.4,-,N/A,,Overcast,70,2013-03-16 14:14:00
10:35 AM,17.6,12.7,81,29.99,10.0,ENE,8.1,-,N/A,Snow,Light Snow,60,2013-03-16 14:35:00
10:55 AM,17.8,12.7,81,29.99,10.0,ENE,9.2,-,N/A,Snow,Light Snow,60,2013-03-16 14:55:00
11:14 AM,18.5,12.7,78,29.99,10.0,NE,10.4,-,N/A,,Mostly Cloudy,50,2013-03-16 15:14:00
11:35 AM,19.2,13.1,77,30.00,7.0,ENE,8.1,-,N/A,Snow,Light Snow,70,2013-03-16 15:35:00
11:54 AM,19.4,13.3,77,30.00,10.0,ENE,8.1,-,N/A,Snow,Light Snow,60,2013-03-16 15:54:00
12:14 PM,19.9,13.1,75,30.00,10.0,ENE,8.1,-,N/A,,Scattered Clouds,60,2013-03-16 16:14:00
12:35 PM,20.5,13.5,74,30.01,10.0,NE,5.8,-,N/A,,Scattered Clouds,50,2013-03-16 16:35:00
12:54 PM,21.2,13.3,72,30.01,10.0,ENE,5.8,-,N/A,,Scattered Clouds,60,2013-03-16 16:54:00
1:14 PM,21.9,13.8,71,30.01,10.0,East,6.9,-,N/A,,Mostly Cloudy,80,2013-03-16 17:14:00
1:34 PM,20.7,13.6,74,30.01,10.0,North,6.9,-,N/A,,Mostly Cloudy,350,2013-03-16 17:34:00
1:54 PM,21.6,13.3,70,30.01,10.0,North,8.1,-,N/A,,Clear,360,2013-03-16 17:54:00
2:15 PM,21.6,13.5,71,30.01,10.0,North,4.6,-,N/A,,Scattered Clouds,10,2013-03-16 18:15:00
2:34 PM,21.6,14.2,73,30.01,10.0,NNW,4.6,-,N/A,,Mostly Cloudy,330,2013-03-16 18:34:00
2:54 PM,21.2,13.5,72,30.00,10.0,NNW,3.5,-,N/A,,Scattered Clouds,330,2013-03-16 18:54:00
3:15 PM,21.6,13.6,72,30.00,10.0,NNW,8.1,-,N/A,,Scattered Clouds,330,2013-03-16 19:15:00
3:34 PM,21.2,14.4,75,30.01,10.0,NNW,8.1,-,N/A,,Scattered Clouds,330,2013-03-16 19:34:00
3:55 PM,20.8,14.0,75,30.00,10.0,NNW,6.9,-,N/A,,Clear,330,2013-03-16 19:55:00
4:15 PM,20.3,12.9,73,30.00,10.0,NNW,8.1,-,N/A,,Clear,340,2013-03-16 20:15:00
4:34 PM,20.8,13.5,73,30.01,10.0,NW,5.8,-,N/A,,Scattered Clouds,310,2013-03-16 20:34:00
4:55 PM,20.8,12.9,71,30.00,10.0,NW,5.8,-,N/A,,Scattered Clouds,320,2013-03-16 20:55:00
5:15 PM,21.2,12.7,70,30.00,10.0,WNW,5.8,-,N/A,,Clear,300,2013-03-16 21:15:00
5:34 PM,21.6,12.7,69,30.00,10.0,WNW,6.9,-,N/A,,Clear,300,2013-03-16 21:34:00
5:55 PM,21.6,12.7,69,30.01,10.0,WNW,4.6,-,N/A,,Clear,300,2013-03-16 21:55:00
6:14 PM,21.9,11.8,65,30.01,10.0,West,6.9,-,N/A,,Clear,280,2013-03-16 22:14:00
6:35 PM,21.9,11.3,64,30.01,10.0,West,6.9,-,N/A,,Clear,270,2013-03-16 22:35:00
6:54 PM,21.6,10.4,62,30.01,10.0,WSW,6.9,-,N/A,,Clear,250,2013-03-16 22:54:00
7:15 PM,21.2,10.4,63,30.01,10.0,West,6.9,-,N/A,,Clear,260,2013-03-16 23:15:00
7:35 PM,20.7,11.1,67,30.00,10.0,SW,3.5,-,N/A,,Clear,220,2013-03-16 23:35:00
7:54 PM,20.5,11.3,68,30.00,10.0,SSW,3.5,-,N/A,,Clear,210,2013-03-16 23:54:00
8:15 PM,19.8,10.9,69,30.00,10.0,SSW,3.5,-,N/A,,Clear,210,2013-03-17 00:15:00
8:35 PM,19.2,11.3,71,30.00,10.0,South,3.5,-,N/A,,Clear,190,2013-03-17 00:35:00
8:54 PM,19.2,11.3,71,29.99,10.0,South,3.5,-,N/A,,Clear,190,2013-03-17 00:54:00
9:15 PM,17.1,11.1,77,29.99,10.0,South,3.5,-,N/A,,Mostly Cloudy,180,2013-03-17 01:15:00
9:34 PM,19.2,12.0,74,30.00,10.0,South,3.5,-,N/A,,Overcast,190,2013-03-17 01:34:00
9:55 PM,20.3,12.2,71,30.00,10.0,South,3.5,-,N/A,,Overcast,190,2013-03-17 01:55:00
10:15 PM,20.5,12.7,72,30.01,10.0,South,4.6,-,N/A,,Overcast,190,2013-03-17 02:15:00
10:34 PM,21.0,13.1,71,30.02,10.0,SSW,5.8,-,N/A,,Overcast,210,2013-03-17 02:34:00
10:55 PM,21.9,14.5,73,30.02,10.0,SW,5.8,-,N/A,,Overcast,220,2013-03-17 02:55:00
11:14 PM,22.8,18.1,82,30.02,2.5,SW,8.1,-,N/A,Snow,Light Snow,230,2013-03-17 03:14:00
11:34 PM,22.6,19.2,87,30.03,1.8,SW,8.1,-,N/A,Snow,Light Snow,230,2013-03-17 03:34:00
11:54 PM,22.1,20.3,93,30.03,0.5,SW,8.1,-,N/A,Snow,Heavy Snow,230,2013-03-17 03:54:00